Time,TemperatureF,DewpointF,PressureIn,WindDirection,WindDirectionDegrees,WindSpeedMPH,WindSpeedGustMPH,Humidity,HourlyPrecipIn,Conditions,Clouds,dailyrainin,SoftwareType,DateUTC
2013-03-04 00:01:00,55.0,12.2,30.01,ESE,112,0.0,0.0,18,0.00,,,0.00,WUHU21636XXSP,2013-03-04 07:01:00,
2013-03-04 00:11:00,54.6,11.9,30.01,ESE,112,0.0,0.0,18,0.00,,,0.00,WUHU21636XXSP,2013-03-04 07:11:00,
2013-03-04 00:22:00,55.5,8.5,30.02,SSW,202,0.0,0.0,15,0.00,,,0.00,WUHU21636XXSP,2013-03-04 07:22:00,
2013-03-04 00:32:00,55.7,8.7,30.01,SE,135,0.0,0.0,15,0.00,,,0.00,WUHU21636XXSP,2013-03-04 07:32:00,
2013-03-04 00:43:00,55.9,8.8,30.02,SW,225,0.0,0.0,15,0.00,,,0.00,WUHU21636XXSP,2013-03-04 07:43:00,
2013-03-04 00:53:00,55.3,11.2,30.00,ESE,112,0.0,0.0,17,0.00,,,0.00,WUHU21636XXSP,2013-03-04 07:53:00,
2013-03-04 01:04:00,54.6,11.9,30.01,ESE,112,0.0,0.0,18,0.00,,,0.00,WUHU21636XXSP,2013-03-04 08:04:00,
2013-03-04 01:14:00,55.2,11.1,30.01,West,270,0.0,0.0,17,0.00,,,0.00,WUHU21636XXSP,2013-03-04 08:14:00,
2013-03-04 01:25:00,56.8,4.5,30.01,West,270,0.0,0.0,12,0.00,,,0.00,WUHU21636XXSP,2013-03-04 08:25:00,
2013-03-04 01:35:00,58.8,4.1,29.99,SW,225,0.0,0.0,11,0.00,,,0.00,WUHU21636XXSP,2013-03-04 08:35:00,
2013-03-04 01:46:00,59.5,2.6,29.99,NW,315,0.0,0.0,10,0.00,,,0.00,WUHU21636XXSP,2013-03-04 08:46:00,
2013-03-04 01:56:00,60.0,-1.8,29.99,SSW,202,0.0,0.0,8,0.00,,,0.00,WUHU21636XXSP,2013-03-04 08:56:00,
2013-03-04 02:06:00,60.2,3.1,29.99,West,270,0.0,1.2,10,0.00,,,0.00,WUHU21636XXSP,2013-03-04 09:06:00,
2013-03-04 02:17:00,60.0,3.0,29.99,SW,225,0.0,53.2,10,0.00,,,0.00,WUHU21636XXSP,2013-03-04 09:17:00,
2013-03-04 02:27:00,60.4,3.3,29.99,WNW,292,0.0,7.6,10,0.00,,,0.00,WUHU21636XXSP,2013-03-04 09:27:00,
2013-03-04 02:38:00,60.0,3.0,29.98,WSW,247,0.9,1.2,10,0.00,,,0.00,WUHU21636XXSP,2013-03-04 09:38:00,
2013-03-04 02:48:00,60.0,3.0,29.98,WNW,292,1.7,4.4,10,0.00,,,0.00,WUHU21636XXSP,2013-03-04 09:48:00,
2013-03-04 02:59:00,60.2,7.2,29.98,West,270,4.4,50.0,12,0.00,,,0.00,WUHU21636XXSP,2013-03-04 09:59:00,
2013-03-04 03:09:00,59.1,9.8,29.98,West,270,0.0,37.4,14,0.00,,,0.00,WUHU21636XXSP,2013-03-04 10:09:00,
2013-03-04 03:20:00,59.7,4.8,29.98,West,270,0.0,0.0,11,0.00,,,0.00,WUHU21636XXSP,2013-03-04 10:20:00,
2013-03-04 03:30:00,59.8,4.9,29.97,WNW,292,0.0,0.0,11,0.00,,,0.00,WUHU21636XXSP,2013-03-04 10:30:00,
2013-03-04 03:41:00,59.8,2.8,29.97,West,270,0.0,0.0,10,0.00,,,0.00,WUHU21636XXSP,2013-03-04 10:41:00,
2013-03-04 03:51:00,59.5,2.6,29.97,NNW,337,0.0,0.0,10,0.00,,,0.00,WUHU21636XXSP,2013-03-04 10:51:00,
2013-03-04 04:02:00,59.8,2.8,29.96,NW,315,0.0,0.0,10,0.00,,,0.00,WUHU21636XXSP,2013-03-04 11:02:00,
2013-03-04 04:12:00,59.8,2.8,29.97,WSW,247,3.0,6.2,10,0.00,,,0.00,WUHU21636XXSP,2013-03-04 11:12:00,
2013-03-04 04:23:00,59.5,2.6,29.97,West,270,0.0,0.0,10,0.00,,,0.00,WUHU21636XXSP,2013-03-04 11:23:00,
2013-03-04 04:33:00,59.7,2.7,29.96,West,270,0.0,0.0,10,0.00,,,0.00,WUHU21636XXSP,2013-03-04 11:33:00,
2013-03-04 04:44:00,59.3,0.1,29.96,WSW,247,0.3,5.2,9,0.00,,,0.00,WUHU21636XXSP,2013-03-04 11:44:00,
2013-03-04 04:54:00,59.3,-2.4,29.97,WSW,247,0.0,4.4,8,0.00,,,0.00,WUHU21636XXSP,2013-03-04 11:54:00,
2013-03-04 05:05:00,59.1,-5.2,29.97,West,270,0.0,0.0,7,0.00,,,0.00,WUHU21636XXSP,2013-03-04 12:05:00,
2013-03-04 05:15:00,59.3,-8.1,29.97,SSW,202,0.0,0.0,6,0.00,,,0.00,WUHU21636XXSP,2013-03-04 12:15:00,
2013-03-04 05:25:00,59.8,-11.0,29.97,West,270,0.0,7.6,5,0.00,,,0.00,WUHU21636XXSP,2013-03-04 12:25:00,
2013-03-04 05:36:00,59.5,-7.9,29.98,West,270,0.0,1.6,6,0.00,,,0.00,WUHU21636XXSP,2013-03-04 12:36:00,
2013-03-04 05:46:00,59.5,-11.2,29.98,SW,225,0.0,6.6,5,0.00,,,0.00,WUHU21636XXSP,2013-03-04 12:46:00,
2013-03-04 05:57:00,59.5,-11.2,29.98,West,270,0.0,7.0,5,0.00,,,0.00,WUHU21636XXSP,2013-03-04 12:57:00,
2013-03-04 06:07:00,59.3,-11.4,29.97,West,270,0.0,0.4,5,0.00,,,0.00,WUHU21636XXSP,2013-03-04 13:07:00,
2013-03-04 06:18:00,59.1,-11.5,29.97,SW,225,0.0,4.4,5,0.00,,,0.00,WUHU21636XXSP,2013-03-04 13:18:00,
2013-03-04 06:28:00,58.9,-8.4,29.97,West,270,0.0,0.0,6,0.00,,,0.00,WUHU21636XXSP,2013-03-04 13:28:00,
2013-03-04 06:39:00,58.9,-2.7,29.97,WNW,292,0.0,0.0,8,0.00,,,0.00,WUHU21636XXSP,2013-03-04 13:39:00,
2013-03-04 06:49:00,58.8,2.0,29.97,WSW,247,0.0,0.0,10,0.00,,,0.00,WUHU21636XXSP,2013-03-04 13:49:00,
2013-03-04 07:00:00,58.6,4.0,29.97,West,270,0.0,0.4,11,0.00,,,0.00,WUHU21636XXSP,2013-03-04 14:00:00,
2013-03-04 07:10:00,57.8,7.1,29.97,WNW,292,0.0,0.0,13,0.00,,,0.00,WUHU21636XXSP,2013-03-04 14:10:00,
2013-03-04 07:21:00,57.6,7.0,29.98,West,270,0.0,0.4,13,0.00,,,0.00,WUHU21636XXSP,2013-03-04 14:21:00,
2013-03-04 07:31:00,57.3,12.8,29.98,WNW,292,0.0,0.0,17,0.00,,,0.00,WUHU21636XXSP,2013-03-04 14:31:00,
2013-03-04 07:42:00,57.5,12.9,29.98,West,270,0.0,0.0,17,0.00,,,0.00,WUHU21636XXSP,2013-03-04 14:42:00,
2013-03-04 07:52:00,59.8,14.8,29.98,NW,315,0.0,0.0,17,0.00,,,0.00,WUHU21636XXSP,2013-03-04 14:52:00,
2013-03-04 08:03:00,56.9,16.2,29.98,West,270,0.0,0.0,20,0.00,,,0.00,WUHU21636XXSP,2013-03-04 15:03:00,
2013-03-04 08:13:00,56.7,17.1,29.98,WSW,247,0.0,0.0,21,0.00,,,0.00,WUHU21636XXSP,2013-03-04 15:13:00,
2013-03-04 08:24:00,56.8,13.6,29.99,WSW,247,0.3,10.6,18,0.00,,,0.00,WUHU21636XXSP,2013-03-04 15:24:00,
2013-03-04 08:34:00,62.0,21.5,29.98,West,270,4.6,45.6,21,0.00,,,0.00,WUHU21636XXSP,2013-03-04 15:34:00,
2013-03-04 08:45:00,63.3,27.7,29.98,SW,225,1.2,8.4,26,0.00,,,0.00,WUHU21636XXSP,2013-03-04 15:45:00,
2013-03-04 08:55:00,62.6,27.0,29.98,West,270,0.9,43.2,26,0.00,,,0.00,WUHU21636XXSP,2013-03-04 15:55:00,
2013-03-04 09:06:00,62.8,26.3,29.97,WNW,292,6.6,39.8,25,0.00,,,0.00,WUHU21636XXSP,2013-03-04 16:06:00,
2013-03-04 09:16:00,63.2,25.6,29.97,WNW,292,0.0,15.6,24,0.00,,,0.00,WUHU21636XXSP,2013-03-04 16:16:00,
2013-03-04 09:26:00,64.1,23.3,29.97,West,270,0.0,41.6,21,0.00,,,0.00,WUHU21636XXSP,2013-03-04 16:26:00,
2013-03-04 09:37:00,63.5,26.9,29.96,West,270,10.6,38.8,25,0.00,,,0.00,WUHU21636XXSP,2013-03-04 16:37:00,
2013-03-04 09:47:00,63.6,26.0,29.96,West,270,7.4,55.0,24,0.00,,,0.00,WUHU21636XXSP,2013-03-04 16:47:00,
2013-03-04 09:58:00,63.9,29.1,29.96,West,270,11.0,59.0,27,0.00,,,0.00,WUHU21636XXSP,2013-03-04 16:58:00,
2013-03-04 10:08:00,63.4,27.7,29.96,SW,225,3.3,37.0,26,0.00,,,0.00,WUHU21636XXSP,2013-03-04 17:08:00,
2013-03-04 10:19:00,64.1,27.4,29.96,West,270,6.0,44.6,25,0.00,,,0.00,WUHU21636XXSP,2013-03-04 17:19:00,
2013-03-04 10:29:00,64.9,27.1,29.96,WNW,292,10.0,55.8,24,0.00,,,0.00,WUHU21636XXSP,2013-03-04 17:29:00,
2013-03-04 10:40:00,65.2,28.4,29.95,NNW,337,4.9,46.0,25,0.00,,,0.00,WUHU21636XXSP,2013-03-04 17:40:00,
2013-03-04 10:50:00,66.3,28.3,29.95,WNW,292,6.6,53.6,24,0.00,,,0.00,WUHU21636XXSP,2013-03-04 17:50:00,
2013-03-04 11:01:00,65.5,28.6,29.95,WNW,292,3.3,48.2,25,0.00,,,0.00,WUHU21636XXSP,2013-03-04 18:01:00,
2013-03-04 11:11:00,65.4,27.6,29.96,WNW,292,6.0,57.6,24,0.00,,,0.00,WUHU21636XXSP,2013-03-04 18:11:00,
2013-03-04 11:22:00,66.1,27.1,29.95,WSW,247,9.0,47.8,23,0.00,,,0.00,WUHU21636XXSP,2013-03-04 18:22:00,
2013-03-04 11:32:00,66.2,26.1,29.96,WNW,292,3.9,61.2,22,0.00,,,0.00,WUHU21636XXSP,2013-03-04 18:32:00,
2013-03-04 11:43:00,66.3,26.2,29.96,NW,315,3.6,41.0,22,0.00,,,0.00,WUHU21636XXSP,2013-03-04 18:43:00,
2013-03-04 11:53:00,66.5,26.4,29.97,WSW,247,8.3,15.6,22,0.00,,,0.00,WUHU21636XXSP,2013-03-04 18:53:00,
2013-03-04 12:04:00,65.8,25.8,29.96,West,270,1.7,49.2,22,0.00,,,0.00,WUHU21636XXSP,2013-03-04 19:04:00,
2013-03-04 12:14:00,65.8,25.8,29.96,WNW,292,2.3,38.0,22,0.00,,,0.00,WUHU21636XXSP,2013-03-04 19:14:00,
2013-03-04 12:25:00,66.6,26.5,29.96,West,270,1.7,61.2,22,0.00,,,0.00,WUHU21636XXSP,2013-03-04 19:25:00,
2013-03-04 12:35:00,66.8,25.5,29.96,West,270,3.6,5.8,21,0.00,,,0.00,WUHU21636XXSP,2013-03-04 19:35:00,
2013-03-04 12:46:00,65.7,25.7,29.96,WNW,292,0.0,34.8,22,0.00,,,0.00,WUHU21636XXSP,2013-03-04 19:46:00,
2013-03-04 12:56:00,66.6,26.5,29.96,WSW,247,1.9,54.0,22,0.00,,,0.00,WUHU21636XXSP,2013-03-04 19:56:00,
2013-03-04 13:06:00,66.5,26.4,29.96,NW,315,2.3,51.8,22,0.00,,,0.00,WUHU21636XXSP,2013-03-04 20:06:00,
2013-03-04 13:17:00,66.8,25.5,29.95,WNW,292,2.6,38.4,21,0.00,,,0.00,WUHU21636XXSP,2013-03-04 20:17:00,
2013-03-04 13:27:00,67.2,25.9,29.95,WSW,247,1.2,51.8,21,0.00,,,0.00,WUHU21636XXSP,2013-03-04 20:27:00,
2013-03-04 13:38:00,67.3,25.9,29.96,WNW,292,1.9,3.0,21,0.00,,,0.00,WUHU21636XXSP,2013-03-04 20:38:00,
2013-03-04 13:48:00,66.6,25.4,29.96,West,270,4.4,8.0,21,0.00,,,0.00,WUHU21636XXSP,2013-03-04 20:48:00,
2013-03-04 13:59:00,66.7,24.3,29.95,WSW,247,3.3,5.8,20,0.00,,,0.00,WUHU21636XXSP,2013-03-04 20:59:00,
2013-03-04 14:09:00,66.5,25.3,29.95,WSW,247,6.3,58.6,21,0.00,,,0.00,WUHU21636XXSP,2013-03-04 21:09:00,
2013-03-04 14:20:00,65.4,24.4,29.96,West,270,8.7,59.4,21,0.00,,,0.00,WUHU21636XXSP,2013-03-04 21:20:00,
2013-03-04 14:30:00,65.9,24.8,29.96,WSW,247,4.6,44.6,21,0.00,,,0.00,WUHU21636XXSP,2013-03-04 21:30:00,
2013-03-04 14:41:00,65.8,24.7,29.96,West,270,4.9,42.8,21,0.00,,,0.00,WUHU21636XXSP,2013-03-04 21:41:00,
2013-03-04 14:51:00,66.1,22.5,29.96,NW,315,17.7,30.4,19,0.00,,,0.00,WUHU21636XXSP,2013-03-04 21:51:00,
2013-03-04 15:02:00,65.6,22.1,29.96,NW,315,1.7,50.4,19,0.00,,,0.00,WUHU21636XXSP,2013-03-04 22:02:00,
2013-03-04 15:12:00,65.7,22.2,29.96,SW,225,1.2,6.6,19,0.00,,,0.00,WUHU21636XXSP,2013-03-04 22:12:00,
2013-03-04 15:23:00,65.6,23.3,29.96,West,270,5.7,28.0,20,0.00,,,0.00,WUHU21636XXSP,2013-03-04 22:23:00,
2013-03-04 15:33:00,65.4,22.0,29.96,West,270,6.6,51.8,19,0.00,,,0.00,WUHU21636XXSP,2013-03-04 22:33:00,
2013-03-04 15:44:00,65.8,23.5,29.96,West,270,4.4,63.4,20,0.00,,,0.00,WUHU21636XXSP,2013-03-04 22:44:00,
2013-03-04 15:54:00,66.1,25.0,29.97,WNW,292,5.3,7.0,21,0.00,,,0.00,WUHU21636XXSP,2013-03-04 22:54:00,
2013-03-04 16:05:00,64.8,21.5,29.96,NW,315,7.6,24.6,19,0.00,,,0.00,WUHU21636XXSP,2013-03-04 23:05:00,
2013-03-04 16:15:00,64.6,20.1,29.97,West,270,5.3,40.2,18,0.00,,,0.00,WUHU21636XXSP,2013-03-04 23:15:00,
2013-03-04 16:26:00,64.2,19.8,29.97,WNW,292,0.9,36.2,18,0.00,,,0.00,WUHU21636XXSP,2013-03-04 23:26:00,
2013-03-04 16:36:00,64.9,21.6,29.98,West,270,0.0,44.2,19,0.00,,,0.00,WUHU21636XXSP,2013-03-04 23:36:00,
2013-03-04 16:47:00,64.3,21.1,29.99,WNW,292,0.0,3.4,19,0.00,,,0.00,WUHU21636XXSP,2013-03-04 23:47:00,
2013-03-04 16:57:00,63.6,21.7,30.00,WSW,247,0.0,2.2,20,0.00,,,0.00,WUHU21636XXSP,2013-03-04 23:57:00,
2013-03-04 17:08:00,62.6,20.9,30.01,NW,315,6.6,8.8,20,0.00,,,0.00,WUHU21636XXSP,2013-03-05 00:08:00,
2013-03-04 17:18:00,62.8,23.3,30.01,WNW,292,0.0,9.8,22,0.00,,,0.00,WUHU21636XXSP,2013-03-05 00:18:00,
2013-03-04 17:29:00,61.6,22.2,30.01,NW,315,3.0,4.0,22,0.00,,,0.00,WUHU21636XXSP,2013-03-05 00:29:00,
2013-03-04 17:39:00,61.5,23.2,30.01,WNW,292,0.0,4.0,23,0.00,,,0.00,WUHU21636XXSP,2013-03-05 00:39:00,
2013-03-04 17:50:00,60.8,24.6,30.01,NW,315,0.0,0.0,25,0.00,,,0.00,WUHU21636XXSP,2013-03-05 00:50:00,
2013-03-04 18:00:00,59.4,25.2,30.02,NNW,337,0.9,1.2,27,0.00,,,0.00,WUHU21636XXSP,2013-03-05 01:00:00,
2013-03-04 18:11:00,58.1,24.9,30.02,North,0,0.0,0.0,28,0.00,,,0.00,WUHU21636XXSP,2013-03-05 01:11:00,
2013-03-04 18:21:00,57.3,22.6,30.01,NNW,337,0.3,0.4,26,0.00,,,0.00,WUHU21636XXSP,2013-03-05 01:21:00,
2013-03-04 18:32:00,56.6,22.8,30.02,NNW,337,0.0,3.0,27,0.00,,,0.00,WUHU21636XXSP,2013-03-05 01:32:00,
2013-03-04 18:42:00,55.9,22.2,30.02,NW,315,2.6,4.0,27,0.00,,,0.00,WUHU21636XXSP,2013-03-05 01:42:00,
2013-03-04 18:52:00,55.4,22.6,30.02,WNW,292,0.0,3.4,28,0.00,,,0.00,WUHU21636XXSP,2013-03-05 01:52:00,
2013-03-04 19:03:00,54.8,22.9,30.04,North,0,0.0,0.0,29,0.00,,,0.00,WUHU21636XXSP,2013-03-05 02:03:00,
2013-03-04 19:13:00,54.4,21.8,30.04,NW,315,0.0,0.0,28,0.00,,,0.00,WUHU21636XXSP,2013-03-05 02:13:00,
2013-03-04 19:24:00,54.1,22.3,30.05,North,0,0.0,0.0,29,0.00,,,0.00,WUHU21636XXSP,2013-03-05 02:24:00,
2013-03-04 19:34:00,54.1,22.3,30.06,NNE,22,0.0,0.0,29,0.00,,,0.00,WUHU21636XXSP,2013-03-05 02:34:00,
2013-03-04 19:45:00,53.5,21.0,30.06,North,0,0.0,0.0,28,0.00,,,0.00,WUHU21636XXSP,2013-03-05 02:45:00,
2013-03-04 19:55:00,53.4,20.9,30.07,North,0,0.0,0.0,28,0.00,,,0.00,WUHU21636XXSP,2013-03-05 02:55:00,
2013-03-04 20:06:00,52.8,21.2,30.08,North,0,0.0,0.0,29,0.00,,,0.00,WUHU21636XXSP,2013-03-05 03:06:00,
2013-03-04 20:16:00,51.6,21.7,30.08,NW,315,0.0,0.0,31,0.00,,,0.00,WUHU21636XXSP,2013-03-05 03:16:00,
2013-03-04 20:27:00,49.8,21.6,30.08,WNW,292,0.0,0.0,33,0.00,,,0.00,WUHU21636XXSP,2013-03-05 03:27:00,
2013-03-04 20:37:00,49.6,22.1,30.09,West,270,0.0,0.0,34,0.00,,,0.00,WUHU21636XXSP,2013-03-05 03:37:00,
2013-03-04 20:48:00,48.7,23.4,30.09,West,270,0.0,0.0,37,0.00,,,0.00,WUHU21636XXSP,2013-03-05 03:48:00,
2013-03-04 20:58:00,47.6,23.0,30.09,West,270,0.0,0.0,38,0.00,,,0.00,WUHU21636XXSP,2013-03-05 03:58:00,
2013-03-04 21:09:00,47.2,23.3,30.10,West,270,0.0,0.0,39,0.00,,,0.00,WUHU21636XXSP,2013-03-05 04:09:00,
2013-03-04 21:19:00,47.2,23.3,30.11,WNW,292,0.0,0.0,39,0.00,,,0.00,WUHU21636XXSP,2013-03-05 04:19:00,
2013-03-04 21:30:00,47.2,22.0,30.11,WNW,292,0.0,0.0,37,0.00,,,0.00,WUHU21636XXSP,2013-03-05 04:30:00,
2013-03-04 21:40:00,46.9,21.8,30.11,WNW,292,0.0,0.0,37,0.00,,,0.00,WUHU21636XXSP,2013-03-05 04:40:00,
2013-03-04 21:51:00,47.2,21.4,30.11,West,270,0.0,0.0,36,0.00,,,0.00,WUHU21636XXSP,2013-03-05 04:51:00,
2013-03-04 22:02:00,46.5,21.4,30.11,WNW,292,0.0,0.0,37,0.00,,,0.00,WUHU21636XXSP,2013-03-05 05:02:00,
2013-03-04 22:12:00,46.5,22.0,30.11,WSW,247,0.0,0.0,38,0.00,,,0.00,WUHU21636XXSP,2013-03-05 05:12:00,
2013-03-04 22:23:00,45.3,22.8,30.11,West,270,0.0,0.0,41,0.00,,,0.00,WUHU21636XXSP,2013-03-05 05:23:00,
2013-03-04 22:33:00,44.7,21.7,30.12,WNW,292,0.0,0.0,40,0.00,,,0.00,WUHU21636XXSP,2013-03-05 05:33:00,
2013-03-04 22:43:00,44.0,22.2,30.11,NW,315,0.0,0.0,42,0.00,,,0.00,WUHU21636XXSP,2013-03-05 05:43:00,
2013-03-04 22:54:00,43.3,22.1,30.11,NW,315,0.0,0.0,43,0.00,,,0.00,WUHU21636XXSP,2013-03-05 05:54:00,
2013-03-04 23:04:00,42.9,22.3,30.11,WNW,292,0.0,0.0,44,0.00,,,0.00,WUHU21636XXSP,2013-03-05 06:04:00,
2013-03-04 23:15:00,42.7,22.7,30.12,West,270,0.0,0.0,45,0.00,,,0.00,WUHU21636XXSP,2013-03-05 06:15:00,
2013-03-04 23:25:00,42.2,22.8,30.12,West,270,0.0,0.0,46,0.00,,,0.00,WUHU21636XXSP,2013-03-05 06:25:00,
2013-03-04 23:36:00,42.2,23.3,30.11,WNW,292,0.0,0.0,47,0.00,,,0.00,WUHU21636XXSP,2013-03-05 06:36:00,
2013-03-04 23:46:00,42.2,23.8,30.12,West,270,0.0,0.0,48,0.00,,,0.00,WUHU21636XXSP,2013-03-05 06:46:00,
2013-03-04 23:57:00,41.5,23.2,30.12,West,270,0.0,0.0,48,0.00,,,0.00,WUHU21636XXSP,2013-03-05 06:57:00,